sat.trackr.live / text

‹ back to catalog

STARLINK-1995

NORAD 47590 · 2021-009AU

PAYLOAD ACTIVE UNKNOWN

§ Identity

Operator
Country
US
Launch date
2021-02-04
Launch site
AFETR
Launch vehicle
Mass (kg)
RCS (m²)

Purposes: comms

External: N2YO · Heavens-Above · Gunter

§ Orbital elements

Epoch: 2026-08-14T17:14:22.703712Z

Period
87.41 min
Inclination
53.0170°
Eccentricity
0.0005651
Mean motion
16.47360939 rev/d
Perigee alt
142.6 km
Apogee alt
150.0 km
Semi-major
6,524.4 km
B*
2.2137e-4
RAAN
309.0336°
Arg perigee
294.3094°
Mean anomaly
65.7365°
Rev number
30,577

§ Raw data

STARLINK-19951 47590U 21009AU  26226.71831833  .12340006  12607-4  22137-3 0  99932 47590  53.0170 309.0336 0005651 294.3094  65.7365 16.47360939305777

JSON: /api/v1/satellites/47590 · /tle

For live sub-satellite position, see the globe view (requires WebGL).

§ Visibility from observer

Set your observer location to see the next 7 days of passes ≥ 10°. The values pass through the URL so the page stays shareable.

No JS? Fill the form by hand. The geolocation button needs JavaScript.